Location: Klein M�hlingen
(51.9472°N, 11.7453°E)
Time: 02:57:59
(UTC+00:00)

Nauka - Pass Details

Date: 28 September 2021
Orbit: 417 x 423 km, 51.6° (Epoch: 22 October)

Event Time Altitude Azimuth Distance (km) Brightness Sun altitude
Rises 18:59:43 0° 282° (WNW) 2,367 ? -19.3°
Reaches altitude 10° 19:01:50 10° 277° (W) 1,502 ? -19.6°
Enters shadow 19:05:04 51° 205° (SSW) 535 ? -20.1°
